Location: Recife
(8.0585°S, 34.8848°W)
Time: 11:13:07
(UTC-03:00)

Transit 2A Rocket - Pass Details

Date: 14 April 2026
Orbit: 587 x 895 km, 66.7° (Epoch: 14 May)

Event Time Altitude Azimuth Distance (km) Brightness Sun altitude
Rises 00:52:30 0° 221° (SW) 3,439 - -67.1°
Reaches altitude 10° 00:55:17 10° 232° (SW) 2,529 - -66.4°
Maximum altitude 01:00:13 28° 289° (WNW) 1,615 - -65.2°
Drops below altitude 10° 01:05:12 10° 345° (NNW) 2,552 - -64.0°
Sets 01:08:03 0° 357° (N) 3,476 - -63.3°
